Weather History for KPHL - July, 2012

Change the Weather History Date:

Friday, July 20, 2012

  Actual Average Record
Temperature  
Mean Temperature 69 °F 78 °F  
Max Temperature 74 °F 87 °F 99 °F (1930)
Min Temperature 64 °F 70 °F 57 °F (1890)
Degree Days  
Heating Degree Days 0 0  
Month to date heating degree days 0 0  
Since 1 June heating degree days 7 11  
Since 1 July heating degree days 0 0  
Cooling Degree Days 4 13  
Month to date cooling degree days 359 257  
Year to date cooling degree days 793 606  
Since 1 June cooling degree days 629 515  
Growing Degree Days 18 (Base 50)    
Moisture  
Dew Point 66 °F    
Average Humidity 86    
Maximum Humidity 93    
Minimum Humidity 78    
Precipitation  
Precipitation 0.26 in 0.14 in 2.32 in (1938)
Month to date precipitation 0.98 2.79  
Year to date precipitation 15.04 22.96  
Snow  
Snow 0.00 in 0.00 in 0.00 in (1870)
Month to date snowfall 0.0 0.0  
Since 1 June snowfall 0.0 0.0  
Since 1 July snowfall 0.0 0.0  
Snow Depth 0.00 in    
Sea Level Pressure  
Sea Level Pressure 29.93 in    
Wind  
Wind Speed 12 mph (NE)    
Max Wind Speed 21 mph    
Max Gust Speed 31 mph    
Visibility 8 miles    
Events Rain    
T = Trace of Precipitation, MM = Missing Value Source: NWS Daily Summary

Daily Weather History Graph

Daily Weather History Graph

Search for Another Location

Airport or City:

Trip Planner

Search our weather history database for the weather conditions in past years. The results will help you decide how hot, cold, wet, or windy it might be!

Date:

Astronomy

Jul. 20, 2012 Rise Set
Actual Time 5:49 AM EDT 8:24 PM EDT
Civil Twilight 5:18 AM EDT 8:55 PM EDT
Nautical Twilight 4:39 AM EDT 9:34 PM EDT
Astronomical Twilight 3:55 AM EDT 10:18 PM EDT
Moon 7:23 AM EDT (7/20) 9:03 PM EDT (7/20)
Length of Visible Light 15h 37m
Length of Day
14h 35m
New Moon, 2% of the Moon is Illuminated
Jul 20
New Moon
Jul 26
First Quarter
Aug 1
Full
Aug 9
Last Quarter
Aug 17
New

Hourly Weather History & Observations

Time (EDT) Temp. Dew Point Humidity Pressure Visibility Wind Dir Wind Speed Gust Speed Precip Events Conditions
12:54 AM 73.9 °F 69.1 °F 85% 29.92 in 10.0 mi East 10.4 mph - 0.00 in Rain Light Rain
1:03 AM 73.4 °F 69.8 °F 88% 29.91 in 10.0 mi ENE 8.1 mph - 0.00 in Rain Light Rain
1:35 AM 73.4 °F 69.8 °F 88% 29.90 in 7.0 mi ENE 6.9 mph - 0.02 in Rain Light Rain
1:42 AM 73.4 °F 69.8 °F 88% 29.91 in 6.0 mi ENE 8.1 mph - 0.03 in Rain Rain
1:54 AM 73.0 °F 71.1 °F 93% 29.91 in 5.0 mi ENE 4.6 mph - 0.05 in Rain Rain
2:13 AM 73.4 °F 71.6 °F 94% 29.90 in 6.0 mi ENE 6.9 mph - 0.03 in Rain Light Rain
2:51 AM 73.4 °F 71.6 °F 94% 29.89 in 7.0 mi ENE 6.9 mph - 0.06 in Rain Light Rain
2:54 AM 73.0 °F 71.1 °F 93% 29.89 in 7.0 mi ENE 8.1 mph - 0.07 in Rain Light Rain
3:54 AM 73.0 °F 71.1 °F 93% 29.87 in 9.0 mi ENE 9.2 mph - 0.00 in Rain Light Rain
4:52 AM 73.4 °F 71.6 °F 94% 29.86 in 10.0 mi East 13.8 mph 20.7 mph 0.00 in   Overcast
4:54 AM 73.0 °F 71.1 °F 93% 29.86 in 10.0 mi East 15.0 mph - 0.00 in   Overcast
5:43 AM 73.4 °F 69.8 °F 88% 29.89 in 10.0 mi North 12.7 mph 19.6 mph N/A   Overcast
5:51 AM 71.6 °F 69.8 °F 94% 29.89 in 9.0 mi NE 13.8 mph - 0.00 in Rain Light Rain
5:54 AM 72.0 °F 69.1 °F 91% 29.88 in 9.0 mi NE 12.7 mph - 0.00 in Rain Light Rain
6:37 AM 71.6 °F 68.0 °F 88% 29.89 in 6.0 mi ENE 9.2 mph - 0.00 in Rain Light Rain
6:47 AM 71.6 °F 68.0 °F 88% 29.90 in 7.0 mi NE 12.7 mph - 0.03 in Rain Light Rain
6:54 AM 71.1 °F 68.0 °F 90% 29.90 in 7.0 mi ENE 12.7 mph - 0.03 in Rain Light Rain
7:05 AM 71.6 °F 66.2 °F 83% 29.90 in 8.0 mi ENE 11.5 mph - 0.00 in Rain Light Rain
7:35 AM 69.8 °F 66.2 °F 88% 29.90 in 4.0 mi NE 12.7 mph 21.9 mph 0.00 in Rain Light Rain
7:38 AM 69.8 °F 66.2 °F 88% 29.90 in 2.0 mi NE 12.7 mph 21.9 mph 0.00 in Rain Light Rain
7:44 AM 69.8 °F 66.2 °F 88% 29.90 in 3.0 mi NE 11.5 mph 21.9 mph 0.02 in Rain Heavy Rain
7:45 AM 69.8 °F 66.2 °F 88% 29.90 in 5.0 mi NE 10.4 mph 20.7 mph 0.04 in Rain Heavy Rain
7:54 AM 69.1 °F 66.0 °F 90% 29.90 in 6.0 mi NE 8.1 mph - 0.11 in Rain Rain
8:03 AM 69.8 °F 66.2 °F 88% 29.90 in 7.0 mi NE 9.2 mph - 0.00 in Rain Light Rain
8:45 AM 69.8 °F 66.2 °F 88% 29.92 in 10.0 mi NNE 8.1 mph - 0.00 in   Overcast
8:54 AM 70.0 °F 66.0 °F 87% 29.92 in 10.0 mi NNE 9.2 mph 23.0 mph 0.00 in   Overcast
9:08 AM 69.8 °F 66.2 °F 88% 29.92 in 10.0 mi NNE 15.0 mph 25.3 mph N/A   Overcast
9:32 AM 69.8 °F 66.2 °F 88% 29.93 in 10.0 mi NNE 11.5 mph - N/A   Overcast
9:54 AM 71.1 °F 66.0 °F 84% 29.92 in 10.0 mi NNE 13.8 mph 17.3 mph N/A   Overcast
10:54 AM 72.0 °F 66.9 °F 84% 29.94 in 10.0 mi NE 11.5 mph - N/A   Overcast
11:54 AM 72.0 °F 66.0 °F 81% 29.94 in 10.0 mi ENE 12.7 mph 20.7 mph N/A   Overcast
12:54 PM 70.0 °F 64.0 °F 81% 29.97 in 10.0 mi NE 11.5 mph - 0.00 in Rain Light Rain
1:54 PM 69.1 °F 64.9 °F 87% 29.96 in 10.0 mi NE 17.3 mph 23.0 mph 0.00 in Rain Light Rain
2:54 PM 70.0 °F 64.0 °F 81% 29.97 in 10.0 mi NE 18.4 mph 26.5 mph 0.00 in   Overcast
3:54 PM 69.1 °F 63.0 °F 81% 29.98 in 10.0 mi ENE 12.7 mph 19.6 mph N/A   Overcast
4:54 PM 69.1 °F 62.1 °F 78% 29.98 in 10.0 mi NE 12.7 mph - N/A   Overcast
5:54 PM 68.0 °F 62.1 °F 81% 29.97 in 10.0 mi NE 16.1 mph 24.2 mph N/A   Overcast
6:54 PM 66.9 °F 62.1 °F 84% 29.98 in 10.0 mi ENE 11.5 mph 21.9 mph N/A   Overcast
7:54 PM 66.0 °F 62.1 °F 87% 30.01 in 10.0 mi NE 13.8 mph 24.2 mph N/A   Overcast
8:02 PM 66.2 °F 62.6 °F 88% 30.01 in 10.0 mi NE 13.8 mph 21.9 mph N/A   Overcast
8:54 PM 66.0 °F 62.1 °F 87% 30.02 in 10.0 mi ENE 11.5 mph - N/A   Overcast
9:54 PM 64.9 °F 62.1 °F 90% 30.04 in 10.0 mi NE 12.7 mph - N/A   Overcast
10:54 PM 64.9 °F 61.0 °F 87% 30.03 in 10.0 mi NE 11.5 mph - N/A   Overcast
11:11 PM 64.4 °F 60.8 °F 88% 30.03 in 10.0 mi ENE 10.4 mph - N/A   Overcast
11:54 PM 64.9 °F 61.0 °F 87% 30.03 in 10.0 mi ENE 10.4 mph - N/A   Overcast